Weather History for Jefferson City, MO

Change the Weather History Date:

Tuesday, November 27, 2012

  Actual Average Record
Temperature  
Mean Temperature 30 °F -  
Max Temperature 41 °F 50 °F 76 °F (1960)
Min Temperature 19 °F 30 °F 8 °F (1977)
Degree Days  
Heating Degree Days 35    
Moisture  
Dew Point 16 °F    
Average Humidity 61    
Maximum Humidity 78    
Minimum Humidity 33    
Precipitation  
Precipitation 0.00 in - - ()
Sea Level Pressure  
Sea Level Pressure 30.39 in    
Wind  
Wind Speed 2 mph (WNW)    
Max Wind Speed 7 mph    
Max Gust Speed -    
Visibility 10 miles    
Events      
Averages and records for this station are not official NWS values.
T = Trace of Precipitation, MM = Missing Value Source: NWS Daily Summary

Daily Weather History Graph

Daily Weather History Graph

Search for Another Location

Airport:

Trip Planner

Search our weather history database for the weather conditions in past years. The results will help you decide how hot, cold, wet, or windy it might be!

Date:

Astronomy

Nov. 27, 2012 Rise Set
Actual Time 7:03 AM CST 4:48 PM CST
Civil Twilight 6:34 AM CST 5:17 PM CST
Nautical Twilight 6:02 AM CST 5:50 PM CST
Astronomical Twilight 5:30 AM CST 6:22 PM CST
Moon 4:20 PM CST (11/27) 6:09 AM CST (11/27)
Length of Visible Light 10h 43m
Length of Day
9h 44m
Waxing Gibbous, 99% of the Moon is Illuminated
Nov 27
Waxing Gibbous
Nov 28
Full
Dec 6
Last Quarter
Dec 13
New
Dec 19
First Quarter

Hourly Weather History & Observations

Time (CST) Temp. Windchill Dew Point Humidity Pressure Visibility Wind Dir Wind Speed Gust Speed Precip Events Conditions
12:53 AM 26.1 °F 21.9 °F 18.0 °F 71% 30.42 in 10.0 mi NW 3.5 mph - N/A   Clear
1:53 AM 25.0 °F 19.3 °F 18.0 °F 75% 30.41 in 10.0 mi NNW 4.6 mph - N/A   Clear
2:53 AM 23.0 °F 18.4 °F 17.1 °F 78% 30.42 in 10.0 mi NNW 3.5 mph - N/A   Clear
3:53 AM 21.9 °F 17.2 °F 15.1 °F 75% 30.41 in 10.0 mi NW 3.5 mph - N/A   Clear
4:53 AM 21.0 °F 16.2 °F 14.0 °F 74% 30.42 in 10.0 mi NW 3.5 mph - N/A   Clear
5:53 AM 19.9 °F - 14.0 °F 78% 30.43 in 10.0 mi Calm Calm - N/A   Clear
6:53 AM 19.9 °F 13.4 °F 12.9 °F 74% 30.45 in 10.0 mi NW 4.6 mph - N/A   Clear
7:53 AM 19.0 °F - 12.9 °F 77% 30.45 in 10.0 mi Calm Calm - N/A   Clear
8:53 AM 23.0 °F - 15.1 °F 72% 30.47 in 10.0 mi Calm Calm - N/A   Clear
9:53 AM 26.1 °F - 15.1 °F 63% 30.49 in 10.0 mi Calm Calm - N/A   Clear
10:53 AM 30.9 °F - 15.1 °F 52% 30.47 in 10.0 mi Calm Calm - 0.00 in   Clear
11:53 AM 34.0 °F 31.0 °F 15.1 °F 46% 30.43 in 10.0 mi Variable 3.5 mph - 0.00 in   Clear
12:53 PM 37.0 °F - 15.1 °F 41% 30.38 in 10.0 mi Calm Calm - N/A   Clear
1:53 PM 39.0 °F - 14.0 °F 36% 30.35 in 10.0 mi Calm Calm - N/A   Clear
2:53 PM 41.0 °F 36.4 °F 14.0 °F 33% 30.33 in 10.0 mi SSW 6.9 mph - N/A   Clear
3:53 PM 39.9 °F 35.8 °F 15.1 °F 36% 30.33 in 10.0 mi South 5.8 mph - N/A   Clear
4:53 PM 39.0 °F 36.8 °F 15.1 °F 38% 30.32 in 10.0 mi SSE 3.5 mph - 0.00 in   Clear
5:53 PM 37.0 °F - 16.0 °F 42% 30.31 in 10.0 mi Calm Calm - N/A   Clear
6:53 PM 30.9 °F - 18.0 °F 59% 30.31 in 10.0 mi Calm Calm - N/A   Clear
7:53 PM 30.0 °F - 17.1 °F 59% 30.32 in 10.0 mi Calm Calm - N/A   Clear
8:53 PM 28.0 °F - 17.1 °F 63% 30.33 in 10.0 mi Calm Calm - N/A   Clear
9:53 PM 27.0 °F - 18.0 °F 69% 30.34 in 10.0 mi Calm Calm - N/A   Clear
10:53 PM 26.1 °F - 18.0 °F 71% 30.34 in 10.0 mi Calm Calm - N/A   Clear
11:53 PM 25.0 °F - 18.0 °F 75% 30.35 in 10.0 mi Calm Calm - N/A   Clear